When you browse on this site, cookies collect data to enhance your experience and personalize the content and advertising you see.
Visit our Privacy Policy to learn more. By continuing to use the site, you agree to this use of cookies and data.
  • In Hungary
  • List of Countries
  • For 7 days
  • Water Temperature
  • Weather Map
  • News
  • Weather Widgets
  • user-avatar
    Login

    Hourly Weather Jayamkondacholapuram

    Today, 21 November, Thursday

    Time Temperature Precipitation Wind Pressure Humidity
    00:00 +26°C° 0.3 mm 2 mps 753 mmHg 90%
    01:00 +26°C° 0.3 mm 2 mps 753 mmHg 91%
    02:00 +25°C° 0.3 mm 2 mps 752 mmHg 91%
    03:00 +25°C° 0 mm 2 mps 753 mmHg 92%
    04:00 +25°C° 0 mm 3 mps 753 mmHg 93%
    05:00 +25°C° 0 mm 3 mps 753 mmHg 94%
    06:00 +26°C° 0.1 mm 3 mps 753 mmHg 90%
    07:00 +27°C° 0.1 mm 4 mps 754 mmHg 87%
    08:00 +28°C° 0.1 mm 4 mps 754 mmHg 83%
    09:00 +29°C° 0.1 mm 4 mps 754 mmHg 79%
    10:00 +30°C° 0.1 mm 5 mps 754 mmHg 74%
    11:00 +33°C° 0.1 mm 5 mps 754 mmHg 69%
    12:00 +32°C° 0.5 mm 5 mps 753 mmHg 70%
    13:00 +32°C° 0.5 mm 5 mps 752 mmHg 70%
    14:00 +32°C° 0.5 mm 6 mps 752 mmHg 71%
    15:00 +30°C° 0.6 mm 5 mps 752 mmHg 76%
    16:00 +29°C° 0.6 mm 5 mps 752 mmHg 81%
    17:00 +28°C° 0.6 mm 4 mps 753 mmHg 86%
    18:00 +27°C° 0.3 mm 4 mps 753 mmHg 87%
    19:00 +27°C° 0.3 mm 4 mps 754 mmHg 89%
    20:00 +27°C° 0.3 mm 4 mps 754 mmHg 91%
    21:00 +26°C° 1.1 mm 4 mps 754 mmHg 91%
    22:00 +26°C° 1.1 mm 4 mps 754 mmHg 91%
    23:00 +26°C° 1.1 mm 4 mps 754 mmHg 92%

    Tomorrow, 22 November, Friday

    Time Temperature Precipitation Wind Pressure Humidity
    00:00 +26°C° 0.4 mm 4 mps 754 mmHg 92%
    01:00 +25°C° 0.4 mm 4 mps 753 mmHg 92%
    02:00 +25°C° 0.4 mm 4 mps 753 mmHg 93%
    03:00 +25°C° 0 mm 4 mps 753 mmHg 93%
    04:00 +25°C° 0 mm 4 mps 753 mmHg 93%
    05:00 +25°C° 0 mm 4 mps 754 mmHg 93%
    06:00 +26°C° 0.1 mm 4 mps 754 mmHg 91%
    07:00 +26°C° 0.1 mm 5 mps 755 mmHg 89%
    08:00 +27°C° 0.1 mm 5 mps 755 mmHg 87%
    09:00 +28°C° 0.6 mm 5 mps 755 mmHg 84%
    10:00 +29°C° 0.6 mm 6 mps 755 mmHg 81%
    11:00 +30°C° 0.6 mm 6 mps 754 mmHg 78%
    12:00 +30°C° 1.1 mm 6 mps 754 mmHg 78%
    13:00 +30°C° 1.1 mm 5 mps 753 mmHg 78%
    14:00 +30°C° 1.1 mm 5 mps 753 mmHg 78%
    15:00 +29°C° 0.5 mm 5 mps 753 mmHg 81%
    16:00 +28°C° 0.5 mm 4 mps 753 mmHg 84%
    17:00 +28°C° 0.5 mm 4 mps 753 mmHg 88%
    18:00 +27°C° 0.4 mm 3 mps 754 mmHg 89%
    19:00 +26°C° 0.4 mm 3 mps 754 mmHg 91%
    20:00 +26°C° 0.4 mm 3 mps 755 mmHg 92%
    21:00 +26°C° 0.5 mm 3 mps 755 mmHg 92%
    22:00 +26°C° 0.5 mm 3 mps 755 mmHg 92%
    23:00 +25°C° 0.5 mm 3 mps 755 mmHg 92%

    Day after tomorrow, 23 November, Saturday

    Time Temperature Precipitation Wind Pressure Humidity
    00:00 +25°C° 0 mm 3 mps 754 mmHg 93%
    01:00 +25°C° 0 mm 3 mps 754 mmHg 93%
    02:00 +25°C° 0 mm 4 mps 753 mmHg 94%
    03:00 +25°C° 0 mm 3 mps 754 mmHg 94%
    04:00 +25°C° 0 mm 3 mps 754 mmHg 95%
    05:00 +24°C° 0 mm 3 mps 754 mmHg 95%
    06:00 +25°C° 0 mm 4 mps 754 mmHg 91%
    07:00 +26°C° 0 mm 4 mps 755 mmHg 88%
    08:00 +27°C° 0 mm 5 mps 755 mmHg 85%
    09:00 +28°C° 0 mm 5 mps 755 mmHg 81%
    10:00 +29°C° 0 mm 5 mps 755 mmHg 76%
    11:00 +32°C° 0 mm 5 mps 754 mmHg 72%
    12:00 +32°C° 0.1 mm 6 mps 754 mmHg 71%
    13:00 +32°C° 0.1 mm 6 mps 753 mmHg 70%
    14:00 +32°C° 0.1 mm 6 mps 753 mmHg 69%
    15:00 +30°C° 0.1 mm 6 mps 753 mmHg 74%
    16:00 +29°C° 0.1 mm 5 mps 753 mmHg 79%
    17:00 +28°C° 0.1 mm 4 mps 753 mmHg 83%
    18:00 +27°C° 0 mm 4 mps 753 mmHg 84%
    19:00 +27°C° 0 mm 4 mps 754 mmHg 85%
    20:00 +26°C° 0 mm 4 mps 754 mmHg 86%
    21:00 +26°C° 0 mm 4 mps 754 mmHg 86%
    22:00 +26°C° 0 mm 4 mps 754 mmHg 85%
    23:00 +25°C° 0 mm 4 mps 754 mmHg 84%

    24 November, Sunday

    Time Temperature Precipitation Wind Pressure Humidity
    00:00 +25°C° 0.1 mm 4 mps 753 mmHg 84%
    01:00 +25°C° 0.1 mm 4 mps 753 mmHg 84%
    02:00 +25°C° 0.1 mm 4 mps 753 mmHg 84%
    03:00 +25°C° 0.1 mm 4 mps 753 mmHg 85%
    04:00 +25°C° 0.1 mm 4 mps 753 mmHg 86%
    05:00 +25°C° 0.1 mm 4 mps 753 mmHg 87%
    06:00 +26°C° 0 mm 4 mps 754 mmHg 85%
    07:00 +26°C° 0 mm 5 mps 754 mmHg 83%
    08:00 +27°C° 0 mm 6 mps 755 mmHg 81%
    09:00 +28°C° 0 mm 6 mps 754 mmHg 77%
    10:00 +29°C° 0 mm 6 mps 754 mmHg 73%
    11:00 +30°C° 0 mm 6 mps 754 mmHg 69%
    12:00 +30°C° 0 mm 6 mps 753 mmHg 68%
    13:00 +30°C° 0 mm 6 mps 753 mmHg 67%
    14:00 +32°C° 0 mm 6 mps 752 mmHg 66%
    15:00 +30°C° 0 mm 5 mps 752 mmHg 69%
    16:00 +28°C° 0 mm 5 mps 752 mmHg 73%
    17:00 +27°C° 0 mm 4 mps 752 mmHg 76%
    18:00 +27°C° 0 mm 4 mps 753 mmHg 76%
    19:00 +27°C° 0 mm 4 mps 753 mmHg 76%
    20:00 +27°C° 0 mm 4 mps 754 mmHg 76%
    21:00 +27°C° 0 mm 4 mps 754 mmHg 77%
    22:00 +26°C° 0 mm 4 mps 754 mmHg 78%
    23:00 +26°C° 0 mm 4 mps 754 mmHg 79%

    25 November, Monday

    Time Temperature Precipitation Wind Pressure Humidity
    00:00 +26°C° 0 mm 4 mps 753 mmHg 81%
    01:00 +26°C° 0 mm 4 mps 753 mmHg 82%
    02:00 +25°C° 0 mm 4 mps 752 mmHg 83%
    03:00 +25°C° 0 mm 4 mps 752 mmHg 84%
    04:00 +25°C° 0 mm 4 mps 753 mmHg 86%
    05:00 +23°C° 0 mm 5 mps 753 mmHg 87%
    06:00 +25°C° 0 mm 5 mps 753 mmHg 85%
    07:00 +26°C° 0 mm 5 mps 754 mmHg 84%
    08:00 +26°C° 0 mm 6 mps 754 mmHg 82%
    09:00 +27°C° 0 mm 6 mps 754 mmHg 80%
    10:00 +27°C° 0 mm 5 mps 754 mmHg 79%
    11:00 +28°C° 0 mm 5 mps 754 mmHg 77%
    12:00 +29°C° 0.7 mm 6 mps 753 mmHg 76%
    13:00 +29°C° 0.7 mm 6 mps 752 mmHg 75%
    14:00 +30°C° 0.7 mm 6 mps 752 mmHg 74%
    15:00 +29°C° 0.4 mm 6 mps 752 mmHg 77%
    16:00 +28°C° 0.4 mm 5 mps 752 mmHg 80%
    17:00 +27°C° 0.4 mm 5 mps 752 mmHg 83%
    18:00 +26°C° 0 mm 4 mps 753 mmHg 84%
    19:00 +26°C° 0 mm 4 mps 753 mmHg 85%
    20:00 +25°C° 0 mm 4 mps 754 mmHg 86%
    21:00 +25°C° 0 mm 4 mps 754 mmHg 87%
    22:00 +25°C° 0 mm 4 mps 754 mmHg 88%
    23:00 +25°C° 0 mm 4 mps 754 mmHg 89%

    26 November, Tuesday

    Time Temperature Precipitation Wind Pressure Humidity
    00:00 +23°C° 0 mm 4 mps 753 mmHg 89%
    01:00 +23°C° 0 mm 4 mps 753 mmHg 89%
    02:00 +23°C° 0 mm 4 mps 752 mmHg 90%
    03:00 +23°C° 0 mm 4 mps 752 mmHg 90%
    04:00 +23°C° 0 mm 4 mps 752 mmHg 90%
    05:00 +23°C° 0 mm 4 mps 753 mmHg 90%
    06:00 +25°C° 0 mm 5 mps 753 mmHg 86%
    07:00 +26°C° 0 mm 5 mps 754 mmHg 83%
    08:00 +27°C° 0 mm 6 mps 754 mmHg 79%
    09:00 +28°C° 0.1 mm 6 mps 754 mmHg 75%
    10:00 +29°C° 0.1 mm 6 mps 754 mmHg 71%
    11:00 +30°C° 0.1 mm 6 mps 753 mmHg 67%
    12:00 +32°C° 0 mm 6 mps 753 mmHg 65%
    13:00 +32°C° 0 mm 6 mps 752 mmHg 64%
    14:00 +32°C° 0 mm 6 mps 751 mmHg 63%
    15:00 +30°C° 0 mm 5 mps 752 mmHg 68%
    16:00 +29°C° 0 mm 5 mps 752 mmHg 74%
    17:00 +28°C° 0 mm 4 mps 752 mmHg 79%
    18:00 +27°C° 0 mm 4 mps 752 mmHg 81%
    19:00 +26°C° 0 mm 3 mps 753 mmHg 84%
    20:00 +26°C° 0 mm 3 mps 753 mmHg 86%
    21:00 +26°C° 0 mm 3 mps 753 mmHg 87%
    22:00 +25°C° 0 mm 3 mps 754 mmHg 89%
    23:00 +25°C° 0 mm 3 mps 754 mmHg 91%
    Show more